Showing default

AAC-AIS-SAT3, 58997

Orbit data source: Space-Track

AAC-AIS-SAT3, 58997 is a UK payload satellite in SSO that was launched on Sat, 11 Nov 2023 UTC via an FALCON 9 launch vehicle from the Air Force Western Test Range (AFWTR). Payload-class satellites include a variety of spacecraft equipped with specific instruments for various scientific and technological missions. These include communications satellites like Starlink; space stations such as the ISS; scientific satellites like the Hubble; Earth observation satellites from companies like Planet Labs, Umbra, and HawkEye 360; GPS; miniature CubeSats for education and research; and military/defense satellites.

Loading next visibility...
Identifier
58997, 2023-174DJ
Orbit
SSO
Country
Flag of UKUK
Related business
Manufacturer
AAC ClydeSpace
Mission
Operational Commercial Communications
Bus & Motor
CUBESAT 3U, Unknown motor
Mass
5 kg wet, 5 kg dry
Launch date (UTC)
2023-11-11 (3 years ago)
Launch vehicle
FALCON 9
Launch site
Air Force Western Test Range (AFWTR)
Object type
Payload
Rocket body
Debris
Shape & HBR
Box, 1.0 m
Radar Cross Section
0.080 m², Medium (>0.1 m² and < 1m²)

Expand to show TLE details & history
Last TLE update: 9 hours ago

TLE from 9 hours ago
0 AAC-AIS-SAT3
1 58997U 23174DJ  26236.93653157  .00002525  00000-0  30131-3 0  9998
2 58997  97.6199 282.6262 0008206  95.2736 264.9416 14.85081214151358
Epoch: 2026-08-24T22:28Z
TLE epoch observation values (Epoch: 2026-08-24T22:28:36.327Z)
Latitude
-0.00004°
Longitude
-27.73624°
Altitude
616.878 km
Speed
7.55 km/s
True Right ascension
18h 50m 30s
True Declination
0° 00' 00"
Sunlit
Object was in full shadow at epoch
Visualization orbit readout
Latitude
Unknown
Longitude
Unknown
Altitude
Unknown
Speed
Unknown
Apparent Right ascension
Unknown
Apparent Declination
Unknown
Sunlit
N/A
Visualization observer readout
Local Sidereal Time
23:02:27
Azimuth
Unknown
Elevation
Unknown
Doppler factor
Unknown
Orbital elements
Apogee altitude
616.087 km
Perigee altitude
604.618 km
Semi-major axis
6,988.49 km
Eccentricity
0.00082
Inclination
97.6199°
RAAN
282.6262°
Arg. of periapsis
95.2736°
True anomaly
264.84794°
Mean anomaly
264.9416°
Eccentric anomaly
264.89477°
Mean motion
3.71508 °/min
Orbital period
96.9 mins
BSTAR
0.00030131
Loading maneuver chart data...
Computing Atmospheric mass density...

Documentation

Showing up to 5 results
|